Find the Weather for any City, State  
or Zipcode, or Country:

West Linn, OR 97068 Weather
Local Radar
Local Radar  
Graphs, Details
Graphs and Gauges
Detailed Weather
Detailed Reports
Maps
Temperature
Heat Index
Windchill
Humidity
Radar
Dew Point
Wind
Visibility
Visible Satellite
Satellite
Fronts
Snow Depth
Jet Stream
Flight Rules
Forecast Maps
Temperature Forecast
Maximum Temperature Forecast
Minimum Temperature Forecast
Dewpoint Forecast
Prevalent Weather
12Hr Probability of Precip.
Sky Cover
Health Maps
UV Forecast
Air Quality
Peak Air Quality Index
Weather Station
Oregon Scientific WMR-968
Current Conditions [Select Refresh to Update]
Updated: 1:30pm on 11/27/14
(location)
Currently:
53.4°
Clear
Overcast
High: 57.2° 
(12:00am) 
Low: 53.1° 
(12:13pm)
Wind: 4 mph from the SW
Gust: 6 mph
Today's High Wind: 20 mph (8:03am)
Humidity: 92%
Pressure: 29.93 in  (Steady) 
Pressure Rate: -0.017 in/hr
Dew Point: 51.2°
Wind Chill: 53.1°
Heat Index (feels like): 59.4°
Comfort Level: Cool
Temperature Rate:  0.12°/hr
 
5 Day Forecast
 
Thu Fri Sat Sun Mon
Clear Clear Clear Clear Clear
Rain Rain Chance Rain Partly Cloudy Chance Snow
59° 55° 48° 43° 39°
48° 37° 21° 25° 27°
Records and Normals
 
Temperature Forecast Normal Record
High 59°
(0)
Low 48°
(0)
 
Weather Advisories
No Advisories
Full Advisory Text...
Weather Map
Almanac
 
Sunrise:  
7:25am
Moonrise: 
11:37am
Moon Phase:
26%
Sunset: 
4:31pm
Moonset:  
10:26pm
 Star Chart...
Rainfall Totals
Hourly Rain 0.00 in
Daily Rain: 0.00 in
Monthly Rain: 2.17 in
Yearly Rain: 44.09 in
Normal Rain, month to date: 0.00 in
Normal Rain, year to date: 0.00 in
Local Weather Exchange® Network
Station ID City 
(Click for Map Location)
Neighborhood 
(Click for History)
Last Update (Date & Time) Temperature
 (°)
Dew
Point (°)
Humidity 
(%)
Wind 
(mph)
from the Wind Gust 
(mph) 
Pressure (in) Hourly
Rain (in)
KORWESTL3 West Linn Sunburst II 11/27 13:30:01 53.4 51.0 92 6 SW 6 29.93 0.00
KORWESTL7 West Linn Hidden Springs 11/27 13:29:42 53.8 52.0 92 1 SW 14 29.90 0.02
KORWESTL11 West Linn Ridgebrook Park 11/27 13:18:30 52.6 50.0 91 4 NW 15 29.93 0.01
KORWESTL13 West Linn Vineland 11/27 13:30:02 54.0 48.0 80 2 NE 4 29.62 0.00
KORWESTL1 West Linn Beaver Nation on Skyline Ridge 11/27 13:29:58 55.2 52.0 89 3 SSW 11 29.94 0.00
MODT63 West Linn MesoWest Canemah (OR 99E MP 14) OR US ODOT 11/27 12:22:00 55.0 50.0 83 6 SW 11 0.00 0.00
MORCO3 West Linn HADS WILLAMETTE RIVER BELOW OREGON CI OR US USGS 11/27 12:15:00 55.0 49.0 80 9 South 18 29.89 0.01
KORLAKEO12 Lake Oswego Marylhurst University 11/27 13:29:58 57.2 51.0 78 4 SE 11 29.66 0.00
KORWESTL14 West Linn Stafford - Tualatin Valley 11/27 13:25:41 52.9 52.0 95 0 North 0 30.06 0.00
KOROREGO29 Oregon City Canemah Way 11/27 13:27:15 54.8 51.0 88 3 SSE 13 29.92 0.00
KORGLADS5 GLADSTONE GLADSTONE (USA) 11/27 13:29:56 56.9 52.0 84 4 SSE 4 29.65 0.02
KOROREGO14 Oregon City 221 Molalla Avenue 11/27 13:30:03 55.5 53.0 88 7 West 7 29.60 0.00
KORLAKEO17 Lake Oswego Palisades 11/27 13:25:58 53.8 51.0 89 0 North 0 29.97 0.00
KOROREGO10 Oregon City Tower Vista 11/27 13:29:55 55.4 48.0 77 5 SSW 8 29.94 0.00
KORGLADS6 Gladstone Gladstone - Gallweather.com 11/27 13:20:35 54.8 52.0 91 5 South 5 29.90 0.00
KORPORTL111 Portland Oakgrove PO 1E (Milwaukie) 11/27 13:29:57 55.8 52.0 88 14 WSW 14 29.90 0.00
KORGLADS4 Gladstone Gladstone - Go Beavers! 11/27 13:29:58 55.8 51.0 84 7 South 8 29.92 0.00
KORLAKEO14 Lake Oswego Rivergrove 11/27 13:25:16 55.4 52.0 90 1 SW 5 29.86 0.00
KOROREGO6 Oregon City Gaffney Lane Neighborhood 11/27 13:29:56 60.1 60.0 99 2 SE 4 29.80 0.00
KORMILWA9 Milwaukie Milwaukie @ 205 Clackamas 11/27 13:30:01 56.7 39.0 51 6 SSW 13 29.66 0.00
KORCLACK9 Clackamas 82nd Drive (GO BLAZERS) 11/27 13:30:03 56.7 53.0 86 2 SSW 4 29.91 0.00
KORCLACK8 Clackamas Watkins Park 11/27 13:29:59 55.9 51.0 83 10 SSW 14 29.86 0.00
KORCLACK6 Clackamas CHPCS Falcons 11/27 13:26:07 56.7 53.0 87 1 SW 0 29.87 0.00
KORLAKEO16 Lake Oswego Portland Near Road 11/27 12:51:01 54.5 0.0 86 7 North 0 --- 0.00
KORMILWA3 Milwaukie meso_neigh25 11/27 09:49:05 56.8 48.0 70 0 North 0 29.92 0.00
KOROREGO31 Oregon City Siler Conservatory 11/27 13:29:58 55.6 49.0 79 7 SW 9 29.94 0.01
KORTUALA2 Tualatin 3DAdams Weather 11/27 13:30:03 55.9 52.0 87 3 SE 13 29.92 0.00
KORPORTL245 Portland SW Portland - Tryon Creek 11/27 13:19:34 54.9 53.0 93 2 East 5 29.94 0.00
KORTUALA3 Tualatin Tualatin 11/27 13:25:01 54.9 50.0 83 0 South 0 29.97 0.00
KORMILWA5 Milwaukie meso_neigh30 11/27 13:30:02 56.6 52.0 84 4 North 15 29.88 0.00
KORMILWA6 Milwaukie Logus-Stanley 11/27 13:29:46 57.2 50.0 77 4 SW 8 29.95 0.00
KORPORTL104 Portland West Portland Park 11/27 13:28:15 52.8 49.0 86 2 SW 4 29.89 0.00
KOROREGO23 Oregon City Bradley Rd 11/27 13:29:47 55.0 50.0 84 4 SSW 9 29.91 0.00
KORPORTL227 Portland Ardenwald Station #1 11/27 13:25:17 56.4 52.0 84 2 WSW 12 29.91 0.00
KORPORTL172 Portland Portland Rowing Club 11/27 13:29:57 56.4 52.0 84 7 SSW 17 29.94 0.00
KORPORTL200 Portland South Burlingame 11/27 13:30:03 54.7 50.0 84 0 North 0 29.55 1.79
KORTUALA7 Tualatin Lake Forest 11/27 13:29:48 57.2 51.0 80 0 ESE 0 29.74 0.00
KORCANBY3 Canby West of Fair Grounds 11/27 13:29:56 56.7 51.0 82 3 South 4 29.93 0.00
KORWILSO8 Wilsonville Charbonneau Lakeside 11/27 13:30:03 59.0 51.0 75 5 WSW 5 29.51 0.00
KUAO Aurora Official Station 11/27 12:53:00 55.0 50.0 83 14 South --- 29.95 ---
Full Advisory Text
No Warnings

© Ambient Weather and Weather Underground
 Never base important decisions on this or any weather information obtained from the Internet
Updated Automatically by Ambient Weather's Virtual Weather Station  V13.01